Location: Baia Mare
(47.6567°N, 23.5850°E)
Time: 08:00:25
(UTC+03:00)

ISS - Pass Details

Date: 22 May 2018
Orbit: 402 x 407 km, 51.6° (Epoch: 21 May)

Event Time Altitude Azimuth Distance (km) Brightness Sun altitude
Rises 22:24:26 0° 231° (SW) 2,311 0.1 -11.0°
Reaches altitude 10° 22:26:32 10° 227° (SW) 1,454 -1.0 -11.3°
Maximum altitude 22:29:43 53° 149° (SSE) 503 -3.8 -11.6°
Drops below altitude 10° 22:32:54 10° 72° (ENE) 1,459 -1.2 -12.0°
Sets 22:35:01 0° 67° (ENE) 2,320 -0.2 -12.2°
